Location: Devils Tower National Monument
(44.5904°N, 104.7201°W)
Time: 23:40:59
(UTC-07:00)

Envisat - Pass Details

Date: 02 February 2020
Orbit: 764 x 766 km, 98.1° (Epoch: 27 February)

Event Time Altitude Azimuth Distance (km) Brightness Sun altitude
Rises 18:51:28 0° 202° (SSW) 3,217 6.6 -18.5°
Reaches altitude 10° 18:54:16 10° 218° (SW) 2,296 6.0 -19.0°
Maximum altitude 18:58:07 22° 268° (W) 1,642 5.6 -19.7°
Drops below altitude 10° 19:02:00 10° 318° (NW) 2,309 6.0 -20.4°
Sets 19:04:50 0° 334° (NNW) 3,240 6.5 -20.9°
